N8QYG-1 Weather Reports


time (UTC)temp
C
wind
direction
speed
KPH
gust
KPH
rain 1hr
cm
rain 24hr
cm
rain mn
cm
humidity
%
barometer
mb
20260506155019 11 263 6.4 6.4 0.00 0.00 0.00 4 1009.0
20260506154019 11 355 11.3 16.1 0.00 0.00 0.00 4 1009.0
20260506153020 11 317 4.8 4.8 0.00 0.00 0.00 5 1009.0
20260506152019 11 245 14.5 14.5 0.00 0.00 0.00 5 1008.7
20260506151020 11 15 19.3 19.3 0.00 0.00 0.00 5 1008.6
20260506150019 11 319 17.7 17.7 0.00 0.00 0.00 5 1008.6
20260506145020 11 44 12.9 12.9 0.00 0.00 0.00 5 1008.5
20260506144020 11 342 8.0 9.7 0.00 0.00 0.00 5 1008.2
20260506143018 11 328 1.6 9.7 0.00 0.00 0.00 4 1008.2
20260506142018 11 0 11.3 16.1 0.00 0.00 0.00 5 1008.3
20260506141019 10 355 17.7 19.3 0.00 0.00 0.00 5 1008.0
20260506140018 10 0 1.6 3.2 0.00 0.00 0.00 5 1008.0
20260506135020 10 320 11.3 11.3 0.00 0.00 0.00 5 1008.0
20260506134021 10 299 6.4 8.0 0.00 0.00 0.00 5 1007.9
20260506133019 9 30 4.8 8.0 0.00 0.00 0.00 6 1007.9
20260506132018 9 301 1.6 4.8 0.00 0.00 0.00 6 1007.7
20260506131019 8 305 1.6 3.2 0.00 0.00 0.00 6 1007.4
20260506130019 8 329 1.6 3.2 0.00 0.00 0.00 6 1007.4
20260506125018 8 333 4.8 6.4 0.00 0.00 0.00 6 1007.4
20260506124017 7 327 3.2 3.2 0.00 0.00 0.00 6 1007.1
20260506123019 7 13 1.6 3.2 0.00 0.00 0.00 6 1007.1
20260506122017 7 315 3.2 4.8 0.00 0.00 0.00 6 1007.0
20260506121018 7 314 1.6 3.2 0.00 0.00 0.00 6 1006.9
20260506120019 7 319 3.2 3.2 0.00 0.00 0.00 6 1006.9
20260506115018 7 300 3.2 3.2 0.00 0.00 0.00 6 1006.9
20260506114018 7 307 8.0 8.0 0.00 0.00 0.00 6 1006.6
20260506113020 7 309 4.8 4.8 0.00 0.00 0.00 6 1006.6
20260506112019 7 300 1.6 3.2 0.00 0.00 0.00 6 1006.4
20260506111019 7 313 4.8 8.0 0.00 0.00 0.00 6 1006.2
20260506110018 7 313 1.6 1.6 0.00 0.00 0.00 6 1006.2
20260506105019 7 292 3.2 4.8 0.00 0.00 0.00 6 1006.1
20260506104017 7 326 4.8 6.4 0.00 0.00 0.00 6 1005.7
20260506103018 7 334 3.2 4.8 0.00 0.00 0.00 6 1005.7
20260506102019 7 306 1.6 4.8 0.00 0.00 0.00 6 1005.7
20260506101019 7 318 3.2 3.2 0.00 0.00 0.00 6 1005.4
20260506100017 7 319 4.8 4.8 0.00 0.00 0.00 6 1005.4
20260506095019 7 0 0.0 0.0 0.00 0.00 0.00 6 1005.6
20260506094018 8 0 0.0 1.6 0.00 0.00 0.00 6 1005.1
20260506093019 8 319 1.6 3.2 0.00 0.00 0.00 6 1005.1
20260506092018 8 319 4.8 4.8 0.00 0.00 0.00 6 1005.4
20260506091019 8 319 3.2 3.2 0.00 0.00 0.00 5 1005.0
20260506090017 8 5 1.6 3.2 0.00 0.00 0.00 5 1005.0
20260506085019 8 355 6.4 8.0 0.00 0.00 0.00 5 1004.9
20260506084018 8 351 1.6 3.2 0.00 0.00 0.00 6 1005.1
20260506083018 8 340 1.6 4.8 0.00 0.00 0.00 5 1005.1
20260506082018 8 0 0.0 1.6 0.00 0.00 0.00 5 1005.0
20260506081018 8 302 1.6 3.2 0.00 0.00 0.00 6 1004.8
20260506073018 8 292 4.8 6.4 0.00 0.00 0.00 6 1004.9
20260506072018 8 291 1.6 1.6 0.00 0.00 0.00 6 1004.7
20260506071020 8 248 3.2 3.2 0.00 0.00 0.00 6 1004.9
20260506062018 8 252 3.2 3.2 0.00 0.00 0.00 6 1005.2
20260506061019 8 252 3.2 3.2 0.00 0.00 0.00 6 1005.5
20260506051019 8 247 1.6 3.2 0.00 0.00 0.00 6 1005.2
20260506045019 9 247 1.6 1.6 0.00 0.00 0.00 5 1005.2
20260506044019 9 0 0.0 0.0 0.00 0.00 0.00 5 1005.2
20260506043019 9 0 0.0 0.0 0.00 0.00 0.00 5 1005.2
20260506042019 9 0 0.0 0.0 0.00 0.00 0.00 5 1005.1
20260506041019 9 247 3.2 3.2 0.00 0.00 0.00 5 1004.9
20260506040019 9 247 4.8 4.8 0.00 0.00 0.00 5 1004.9
20260506035018 9 0 0.0 0.0 0.00 0.00 0.00 5 1004.9
20260506034018 10 247 3.2 3.2 0.00 0.00 0.00 5 1005.0
20260506033019 10 0 0.0 1.6 0.00 0.00 0.00 5 1005.0
20260506032020 10 0 0.0 0.0 0.00 0.00 0.00 5 1005.2
20260506031020 10 247 4.8 4.8 0.00 0.00 0.00 5 1005.1
20260506030019 10 0 0.0 1.6 0.00 0.00 0.00 5 1005.1
20260506025018 10 257 1.6 1.6 0.00 0.00 0.00 5 1005.1
20260506024018 10 267 6.4 6.4 0.00 0.00 0.00 5 1005.1
20260506023018 10 265 4.8 4.8 0.00 0.00 0.00 5 1005.1
20260506022018 10 265 1.6 4.8 0.00 0.00 0.00 5 1005.1
20260506021018 10 259 4.8 4.8 0.00 0.00 0.00 5 1005.1
20260506020018 10 270 6.4 6.4 0.00 0.00 0.00 5 1005.1
20260506015019 10 290 1.6 1.6 0.00 0.00 0.00 4 1004.6
20260506014018 10 290 3.2 4.8 0.00 0.00 0.00 4 1004.5
20260506013018 10 288 3.2 3.2 0.00 0.00 0.00 4 1004.5
20260506012018 10 271 3.2 3.2 0.00 0.00 0.00 5 1004.4
20260506011018 11 280 6.4 8.0 0.00 0.00 0.00 5 1004.3
20260506010017 11 254 4.8 9.7 0.00 0.00 0.00 5 1004.3
20260506005018 11 270 4.8 6.4 0.00 0.00 0.00 5 1004.4
20260506004018 11 267 3.2 4.8 0.00 0.00 0.00 5 1004.5
20260506003019 11 259 1.6 3.2 0.00 0.00 0.00 5 1004.5
20260506002018 11 262 3.2 4.8 0.00 0.18 0.00 5 1004.4
20260506001019 11 262 1.6 3.2 0.00 0.18 0.00 5 1004.2
20260506000018 11 260 4.8 4.8 0.00 0.18 0.00 5 1004.2
20260505235019 11 269 3.2 3.2 0.00 0.18 0.00 5 1003.9
20260505234018 11 296 1.6 3.2 0.00 0.18 0.00 5 1003.6
20260505233018 11 281 1.6 3.2 0.00 0.18 0.00 5 1003.6
20260505232018 11 302 3.2 4.8 0.00 0.18 0.00 5 1003.6
20260505231019 12 263 3.2 4.8 0.00 0.18 0.00 5 1003.6
20260505230019 12 310 4.8 4.8 0.00 0.18 0.00 5 1003.6
20260505225020 12 251 3.2 6.4 0.00 0.18 0.00 5 1003.7
20260505224018 12 282 4.8 4.8 0.00 0.18 0.00 5 1003.7
20260505223018 12 294 11.3 11.3 0.00 0.18 0.00 5 1003.7
20260505222018 12 312 6.4 8.0 0.00 0.18 0.00 5 1003.7
20260505221018 12 272 9.7 14.5 0.00 0.18 0.00 5 1003.5
20260505220018 12 279 4.8 6.4 0.00 0.18 0.00 6 1003.5
20260505215018 12 271 11.3 12.9 0.00 0.18 0.00 6 1003.7
20260505214018 12 265 8.0 8.0 0.00 0.18 0.00 6 1003.7
20260505213018 12 271 11.3 11.3 0.00 0.18 0.00 6 1003.7
20260505212017 12 261 11.3 11.3 0.00 0.18 0.00 6 1003.5
20260505211019 12 312 9.7 12.9 0.00 0.18 0.00 6 1003.7
20260505210019 12 315 6.4 8.0 0.00 0.18 0.00 6 1003.7
20260505205019 12 247 3.2 4.8 0.00 0.18 0.00 6 1003.7
20260505204023 12 254 9.7 11.3 0.00 0.18 0.00 6 1003.8
20260505203018 12 249 3.2 4.8 0.00 0.18 0.00 6 1003.8
20260505202018 12 246 12.9 14.5 0.00 0.18 0.00 6 1003.8
20260505201018 12 0 0.0 1.6 0.00 0.18 0.00 6 1003.8
20260505200020 12 231 3.2 4.8 0.00 0.18 0.00 6 1003.8
20260505195020 12 230 8.0 8.0 0.00 0.18 0.00 6 1003.8
20260505194021 12 238 4.8 9.7 0.00 0.18 0.00 6 1003.9
20260505193022 11 267 9.7 9.7 0.00 0.18 0.00 6 1003.9
20260505192019 11 232 8.0 8.0 0.00 0.18 0.00 6 1003.9
20260505191020 11 216 3.2 3.2 0.00 0.18 0.00 6 1004.2
20260505190018 11 245 1.6 1.6 0.00 0.18 0.00 7 1004.2
20260505185018 11 197 8.0 12.9 0.00 0.18 0.00 6 1004.2
20260505184018 11 221 8.0 12.9 0.00 0.18 0.00 7 1003.9
20260505183021 11 244 8.0 12.9 0.00 0.18 0.00 6 1003.9
20260505182018 11 214 4.8 4.8 0.00 0.18 0.00 6 1003.7
20260505181019 11 201 4.8 9.7 0.00 0.18 0.00 7 1003.6
20260505180018 11 243 3.2 4.8 0.00 0.18 0.00 7 1003.6
20260505175019 11 271 8.0 12.9 0.00 0.18 0.00 7 1003.4
20260505174018 11 215 1.6 4.8 0.00 0.18 0.00 7 1003.2
20260505173018 11 261 4.8 4.8 0.00 0.18 0.00 7 1003.2
20260505172018 11 259 8.0 9.7 0.00 0.18 0.00 7 1003.2
20260505171019 11 249 6.4 11.3 0.00 0.18 0.00 7 1003.2
20260505170017 11 259 4.8 8.0 0.00 0.18 0.00 7 1003.2
20260505165019 11 298 4.8 8.0 0.00 0.18 0.00 7 1003.4
20260505164019 11 292 3.2 8.0 0.00 0.18 0.00 7 1003.6
20260505163019 11 259 11.3 12.9 0.00 0.18 0.00 7 1003.6
20260505162018 11 268 9.7 9.7 0.00 0.18 0.00 7 1003.7
20260505161019 12 286 9.7 9.7 0.00 0.18 0.00 6 1003.4